When you browse on this site, cookies collect data to enhance your experience and personalize the content and advertising you see.
Visit our Privacy Policy to learn more. By continuing to use the site, you agree to this use of cookies and data.
  • In Lithuania
  • List of Countries
  • For 7 days
  • Water Temperature
  • Satellite Maps
  • Weather Map
  • Weather Widgets
  • user-avatar
    Login

    Hourly Weather Cam Ranh

    Today, 22 April, Monday

    Time Temperature Precipitation Wind Pressure Humidity
    00:00 +27°C° 0 mm 3 mps 751 mmHg 89%
    01:00 +27°C° 0 mm 3 mps 751 mmHg 90%
    02:00 +27°C° 0 mm 3 mps 751 mmHg 91%
    03:00 +27°C° 0 mm 3 mps 751 mmHg 92%
    04:00 +26°C° 0 mm 2 mps 751 mmHg 93%
    05:00 +28°C° 0 mm 2 mps 751 mmHg 86%
    06:00 +29°C° 0 mm 2 mps 751 mmHg 80%
    07:00 +31°C° 0 mm 2 mps 752 mmHg 69%
    08:00 +34°C° 0 mm 2 mps 752 mmHg 58%
    09:00 +36°C° 0 mm 2 mps 752 mmHg 47%
    10:00 +38°C° 0 mm 2 mps 752 mmHg 37%
    11:00 +39°C° 0 mm 3 mps 752 mmHg 37%
    12:00 +39°C° 0 mm 3 mps 751 mmHg 37%
    13:00 +41°C° 0 mm 4 mps 751 mmHg 38%
    14:00 +40°C° 0 mm 4 mps 751 mmHg 43%
    15:00 +37°C° 0 mm 4 mps 750 mmHg 48%
    16:00 +36°C° 0 mm 4 mps 750 mmHg 53%
    17:00 +34°C° 0 mm 3 mps 750 mmHg 64%
    18:00 +31°C° 0 mm 3 mps 751 mmHg 75%
    19:00 +29°C° 0 mm 2 mps 751 mmHg 85%
    20:00 +28°C° 0 mm 1 mps 751 mmHg 88%
    21:00 +28°C° 0 mm 1 mps 752 mmHg 90%
    22:00 +28°C° 0 mm 1 mps 752 mmHg 92%
    23:00 +27°C° 0 mm 1 mps 752 mmHg 92%

    Tomorrow, 23 April, Tuesday

    Time Temperature Precipitation Wind Pressure Humidity
    00:00 +27°C° 0 mm 1 mps 752 mmHg 92%
    01:00 +27°C° 0 mm 1 mps 752 mmHg 92%
    02:00 +27°C° 0 mm 1 mps 752 mmHg 90%
    03:00 +27°C° 0 mm 1 mps 752 mmHg 89%
    04:00 +26°C° 0 mm 1 mps 752 mmHg 88%
    05:00 +28°C° 0 mm 1 mps 752 mmHg 80%
    06:00 +29°C° 0 mm 2 mps 752 mmHg 72%
    07:00 +31°C° 0 mm 2 mps 752 mmHg 65%
    08:00 +34°C° 0 mm 2 mps 753 mmHg 58%
    09:00 +36°C° 0 mm 2 mps 753 mmHg 50%
    10:00 +39°C° 0 mm 2 mps 753 mmHg 43%
    11:00 +39°C° 0 mm 3 mps 752 mmHg 44%
    12:00 +40°C° 0 mm 4 mps 752 mmHg 44%
    13:00 +40°C° 0 mm 4 mps 752 mmHg 45%
    14:00 +38°C° 0 mm 4 mps 751 mmHg 51%
    15:00 +37°C° 0 mm 4 mps 751 mmHg 58%
    16:00 +36°C° 0 mm 4 mps 751 mmHg 64%
    17:00 +34°C° 0 mm 4 mps 751 mmHg 74%
    18:00 +32°C° 0 mm 4 mps 751 mmHg 83%
    19:00 +30°C° 0 mm 3 mps 752 mmHg 92%
    20:00 +30°C° 0 mm 3 mps 752 mmHg 93%
    21:00 +29°C° 0 mm 2 mps 753 mmHg 94%
    22:00 +29°C° 0 mm 2 mps 753 mmHg 95%
    23:00 +28°C° 0 mm 2 mps 753 mmHg 96%

    Day after tomorrow, 24 April, Wednesday

    Time Temperature Precipitation Wind Pressure Humidity
    00:00 +27°C° 0 mm 1 mps 753 mmHg 97%
    01:00 +27°C° 0 mm 1 mps 753 mmHg 98%
    02:00 +26°C° 0 mm 1 mps 752 mmHg 95%
    03:00 +26°C° 0 mm 2 mps 752 mmHg 91%
    04:00 +25°C° 0 mm 2 mps 752 mmHg 88%
    05:00 +26°C° 0 mm 2 mps 752 mmHg 80%
    06:00 +28°C° 0 mm 2 mps 753 mmHg 72%
    07:00 +29°C° 0 mm 2 mps 753 mmHg 63%
    08:00 +32°C° 0 mm 2 mps 753 mmHg 55%
    09:00 +35°C° 0 mm 2 mps 753 mmHg 47%
    10:00 +38°C° 0 mm 2 mps 754 mmHg 39%
    11:00 +39°C° 0 mm 2 mps 753 mmHg 38%
    12:00 +39°C° 0 mm 3 mps 752 mmHg 38%
    13:00 +40°C° 0 mm 3 mps 752 mmHg 37%
    14:00 +38°C° 0 mm 3 mps 751 mmHg 43%
    15:00 +37°C° 0 mm 3 mps 751 mmHg 49%
    16:00 +36°C° 0 mm 3 mps 750 mmHg 54%
    17:00 +34°C° 0 mm 3 mps 750 mmHg 68%
    18:00 +31°C° 0 mm 3 mps 751 mmHg 81%
    19:00 +28°C° 0 mm 2 mps 751 mmHg 94%
    20:00 +28°C° 0 mm 2 mps 752 mmHg 95%
    21:00 +28°C° 0 mm 2 mps 752 mmHg 95%
    22:00 +28°C° 0 mm 2 mps 753 mmHg 96%
    23:00 +28°C° 0.1 mm 2 mps 752 mmHg 92%

    25 April, Thursday

    Time Temperature Precipitation Wind Pressure Humidity
    00:00 +28°C° 0.1 mm 2 mps 752 mmHg 88%
    01:00 +28°C° 0.1 mm 1 mps 752 mmHg 85%
    02:00 +28°C° 0 mm 1 mps 751 mmHg 84%
    03:00 +28°C° 0 mm 1 mps 751 mmHg 83%
    04:00 +28°C° 0 mm 1 mps 751 mmHg 81%
    05:00 +29°C° 0 mm 1 mps 751 mmHg 82%
    06:00 +29°C° 0 mm 1 mps 752 mmHg 82%
    07:00 +30°C° 0 mm 1 mps 752 mmHg 82%
    08:00 +32°C° 0 mm 2 mps 752 mmHg 71%
    09:00 +35°C° 0 mm 2 mps 753 mmHg 59%
    10:00 +37°C° 0 mm 3 mps 753 mmHg 47%
    11:00 +38°C° 0 mm 3 mps 752 mmHg 44%
    12:00 +39°C° 0 mm 3 mps 752 mmHg 42%
    13:00 +40°C° 0 mm 4 mps 751 mmHg 39%
    14:00 +38°C° 0 mm 3 mps 750 mmHg 43%
    15:00 +37°C° 0 mm 3 mps 750 mmHg 47%
    16:00 +36°C° 0 mm 3 mps 749 mmHg 52%
    17:00 +33°C° 0 mm 3 mps 750 mmHg 63%
    18:00 +30°C° 0 mm 2 mps 751 mmHg 75%
    19:00 +28°C° 0 mm 1 mps 751 mmHg 87%
    20:00 +27°C° 0 mm 1 mps 752 mmHg 89%
    21:00 +27°C° 0 mm 1 mps 752 mmHg 91%
    22:00 +26°C° 0 mm 1 mps 752 mmHg 92%
    23:00 +26°C° 0 mm 1 mps 752 mmHg 91%

    26 April, Friday

    Time Temperature Precipitation Wind Pressure Humidity
    00:00 +26°C° 0 mm 1 mps 752 mmHg 90%
    01:00 +26°C° 0 mm 1 mps 751 mmHg 89%
    02:00 +26°C° 0 mm 1 mps 751 mmHg 87%
    03:00 +25°C° 0 mm 1 mps 751 mmHg 85%
    04:00 +25°C° 0 mm 1 mps 751 mmHg 84%
    05:00 +27°C° 0 mm 1 mps 751 mmHg 78%
    06:00 +28°C° 0 mm 1 mps 752 mmHg 72%
    07:00 +30°C° 0 mm 1 mps 752 mmHg 66%
    08:00 +32°C° 0 mm 1 mps 752 mmHg 58%
    09:00 +35°C° 0 mm 1 mps 753 mmHg 49%
    10:00 +37°C° 0 mm 1 mps 753 mmHg 40%
    11:00 +39°C° 0 mm 2 mps 752 mmHg 40%
    12:00 +39°C° 0 mm 3 mps 751 mmHg 39%
    13:00 +40°C° 0 mm 4 mps 751 mmHg 39%
    14:00 +38°C° 0 mm 4 mps 750 mmHg 44%
    15:00 +37°C° 0 mm 4 mps 750 mmHg 49%
    16:00 +35°C° 0 mm 4 mps 750 mmHg 54%
    17:00 +33°C° 0 mm 3 mps 750 mmHg 63%
    18:00 +30°C° 0 mm 2 mps 751 mmHg 71%
    19:00 +28°C° 0 mm 2 mps 751 mmHg 80%
    20:00 +28°C° 0 mm 2 mps 752 mmHg 83%
    21:00 +27°C° 0 mm 1 mps 752 mmHg 85%
    22:00 +27°C° 0 mm 1 mps 753 mmHg 88%
    23:00 +26°C° 0 mm 1 mps 752 mmHg 89%

    27 April, Saturday

    Time Temperature Precipitation Wind Pressure Humidity
    00:00 +26°C° 0 mm 1 mps 752 mmHg 90%
    01:00 +26°C° 0 mm 1 mps 752 mmHg 92%
    02:00 +26°C° 0 mm 1 mps 752 mmHg 92%
    03:00 +25°C° 0 mm 2 mps 752 mmHg 91%
    04:00 +25°C° 0 mm 2 mps 752 mmHg 91%
    05:00 +27°C° 0 mm 2 mps 752 mmHg 83%
    06:00 +28°C° 0 mm 2 mps 753 mmHg 75%
    07:00 +30°C° 0 mm 2 mps 753 mmHg 66%
    08:00 +32°C° 0 mm 2 mps 753 mmHg 58%
    09:00 +36°C° 0 mm 2 mps 753 mmHg 49%
    10:00 +38°C° 0 mm 2 mps 753 mmHg 40%
    11:00 +38°C° 0 mm 3 mps 752 mmHg 41%
    12:00 +40°C° 0 mm 4 mps 752 mmHg 42%
    13:00 +40°C° 0 mm 5 mps 751 mmHg 42%
    14:00 +38°C° 0 mm 4 mps 751 mmHg 47%
    15:00 +37°C° 0 mm 4 mps 751 mmHg 52%
    16:00 +36°C° 0 mm 4 mps 750 mmHg 57%
    17:00 +34°C° 0 mm 3 mps 751 mmHg 67%
    18:00 +31°C° 0 mm 3 mps 752 mmHg 78%
    19:00 +29°C° 0 mm 2 mps 752 mmHg 88%
    20:00 +29°C° 0.1 mm 2 mps 753 mmHg 89%
    21:00 +29°C° 0.1 mm 2 mps 753 mmHg 91%
    22:00 +29°C° 0.1 mm 1 mps 754 mmHg 92%
    23:00 +28°C° 0.1 mm 1 mps 753 mmHg 93%
    Show more